カタログに戻る

STARLINK-5522

運用中通信VLEO
NORAD 56498·PAYLOAD·🇺🇸 United States

打ち上げ May 10, 2023 から Vandenberg Space Force Base

Loading…

次のパス (今後24時間)

TLE

最新Source: CelesTrak SupGP

元期: Sep 14, 2026, 14:09 UTC

1 56498C 23064BC  26257.59006944 -.00018470  00000+0 -15476-2 0  2579
2 56498  70.0020 348.1216 0003470 271.0111 290.2540 14.98346794    13

AllMySatでSTARLINK-5522をリアルタイム追跡

Download on the App Store